Radiation Dose measured at exhaust stack monitor of Fukushima Daiichi Nuclear Power Station
Date,Time,Unit 5 6 shared exhaust cylinders,Wind Direction,Wind Velocity(m/s)
2021/04/08,00:00,4.0,north-northwest,3.8
2021/04/08,00:10,3.9,north,2.8
2021/04/08,00:20,4.0,northwest,3.3
2021/04/08,00:30,4.0,northwest,2.9
2021/04/08,00:40,4.0,west-northwest,5.1
2021/04/08,00:50,3.9,northwest,5.4
2021/04/08,01:00,3.9,west-northwest,4.7
2021/04/08,01:10,4.1,northwest,2.3
2021/04/08,01:20,4.1,west-northwest,4.2
2021/04/08,01:30,3.9,west-northwest,4.8
2021/04/08,01:40,3.9,west-northwest,7.0
2021/04/08,01:50,3.9,west-northwest,7.2
2021/04/08,02:00,3.8,west-northwest,8.9
2021/04/08,02:10,3.9,west,8.6
2021/04/08,02:20,3.9,west,9.2
2021/04/08,02:30,3.9,west,9.4
2021/04/08,02:40,3.9,west,10.6
2021/04/08,02:50,4.0,west,10.6
2021/04/08,03:00,4.0,west,9.6
2021/04/08,03:10,4.0,west,9.0
2021/04/08,03:20,3.9,west,8.0
2021/04/08,03:30,3.9,west,7.6
2021/04/08,03:40,4.1,west,7.4
2021/04/08,03:50,3.8,west,6.7
2021/04/08,04:00,3.9,west,7.0
2021/04/08,04:10,4.0,west,6.9
2021/04/08,04:20,4.0,west,6.7
2021/04/08,04:30,4.0,west,6.7
2021/04/08,04:40,3.8,west,7.2
2021/04/08,04:50,3.8,west,7.5
2021/04/08,05:00,4.0,west,7.3
2021/04/08,05:10,4.1,west,7.1
2021/04/08,05:20,4.1,west,7.5
2021/04/08,05:30,3.8,west-northwest,9.2
2021/04/08,05:40,4.2,west-northwest,9.5
2021/04/08,05:50,3.9,west-northwest,9.7
2021/04/08,06:00,4.1,west-northwest,8.0
2021/04/08,06:10,3.9,west-northwest,7.5
2021/04/08,06:20,4.1,west,7.5
2021/04/08,06:30,3.7,west,7.0
2021/04/08,06:40,3.9,west-northwest,8.0
2021/04/08,06:50,4.2,west-northwest,7.9
2021/04/08,07:00,4.1,west-northwest,8.2
2021/04/08,07:10,4.0,west-northwest,7.4
2021/04/08,07:20,4.0,west-northwest,6.6
2021/04/08,07:30,3.8,west-northwest,7.9
2021/04/08,07:40,3.9,west-northwest,8.3
2021/04/08,07:50,4.0,west-northwest,7.5
2021/04/08,08:00,3.8,west-northwest,7.5
2021/04/08,08:10,3.7,northwest,6.8
2021/04/08,08:20,4.2,west-northwest,6.9
2021/04/08,08:30,3.9,west-northwest,7.7
2021/04/08,08:40,3.9,northwest,7.4
2021/04/08,08:50,3.9,northwest,5.7
2021/04/08,09:00,3.9,northwest,6.1
2021/04/08,09:10,4.1,west-northwest,3.1
2021/04/08,09:20,3.8,west-northwest,2.3
2021/04/08,09:30,3.8,northwest,2.0
2021/04/08,09:40,3.9,northwest,5.0
2021/04/08,09:50,3.9,northwest,3.4
2021/04/08,10:00,4.0,north-northwest,2.9
2021/04/08,10:10,4.0,west-northwest,2.6
2021/04/08,10:20,4.0,north,2.9
2021/04/08,10:30,3.9,north-northwest,1.9
2021/04/08,10:40,3.9,northeast,3.1
2021/04/08,10:50,3.9,east-southeast,4.4
2021/04/08,11:00,4.1,east-southeast,4.0
2021/04/08,11:10,3.9,east,4.2
2021/04/08,11:20,4.0,east-southeast,3.7
2021/04/08,11:30,3.9,east-southeast,4.3
2021/04/08,11:40,4.1,east-southeast,3.7
2021/04/08,11:50,3.7,southeast,5.0
2021/04/08,12:00,3.8,southeast,4.9
2021/04/08,12:10,4.2,southeast,4.8
2021/04/08,12:20,4.1,southeast,4.6
2021/04/08,12:30,3.9,east-southeast,5.4
2021/04/08,12:40,3.8,southeast,3.8
2021/04/08,12:50,3.9,south-southeast,5.1
2021/04/08,13:00,4.0,southeast,4.4
2021/04/08,13:10,4.1,south-southeast,5.1
2021/04/08,13:20,4.0,southeast,4.1
2021/04/08,13:30,3.8,southeast,3.9
2021/04/08,13:40,3.9,southeast,5.0
2021/04/08,13:50,3.8,southeast,5.5
2021/04/08,14:00,4.0,southeast,5.3
2021/04/08,14:10,4.0,southeast,5.7
2021/04/08,14:20,3.8,south-southeast,5.7
2021/04/08,14:30,3.9,south-southeast,8.2
2021/04/08,14:40,4.1,south-southeast,8.9
2021/04/08,14:50,4.0,south-southeast,7.4
2021/04/08,15:00,3.9,south-southeast,8.4
2021/04/08,15:10,4.1,south-southeast,9.4
2021/04/08,15:20,4.0,south-southeast,9.2
2021/04/08,15:30,4.0,south-southeast,8.2
2021/04/08,15:40,4.0,south-southeast,7.2
2021/04/08,15:50,4.0,south-southeast,7.5
2021/04/08,16:00,3.9,south-southeast,6.5
2021/04/08,16:10,4.0,south-southeast,7.4
2021/04/08,16:20,4.0,south-southeast,6.8
2021/04/08,16:30,4.0,south-southeast,5.6
2021/04/08,16:40,4.0,south-southeast,6.6
2021/04/08,16:50,4.0,south-southeast,6.0
2021/04/08,17:00,4.0,south-southeast,4.8
2021/04/08,17:10,4.1,south-southeast,7.3
2021/04/08,17:20,4.0,south,4.2
2021/04/08,17:30,3.9,east,1.1
2021/04/08,17:40,3.9,northeast,5.5
2021/04/08,17:50,4.2,northeast,4.0
2021/04/08,18:00,4.0,northeast,5.4
2021/04/08,18:10,3.9,north-northeast,4.5
2021/04/08,18:20,4.1,north,6.8
2021/04/08,18:30,4.0,north-northeast,7.1
2021/04/08,18:40,3.9,north,8.5
2021/04/08,18:50,3.9,north,7.6
2021/04/08,19:00,4.0,north-northwest,7.6
2021/04/08,19:10,4.0,north-northwest,7.1
2021/04/08,19:20,4.1,north-northwest,8.3
2021/04/08,19:30,3.9,north,8.7
2021/04/08,19:40,4.0,north-northwest,6.7
2021/04/08,19:50,3.8,north-northwest,6.1
2021/04/08,20:00,3.9,north,6.7
2021/04/08,20:10,4.0,north,6.1
2021/04/08,20:20,4.0,north-northwest,5.9
2021/04/08,20:30,3.8,north-northwest,6.1
2021/04/08,20:40,4.1,north-northwest,6.7
2021/04/08,20:50,3.9,north-northwest,5.7
2021/04/08,21:00,4.0,north-northwest,6.6
2021/04/08,21:10,3.8,north-northwest,6.7
2021/04/08,21:20,3.7,north-northwest,7.0
2021/04/08,21:30,3.9,north,5.9
2021/04/08,21:40,4.1,north-northwest,6.9
2021/04/08,21:50,3.9,north-northwest,7.5
2021/04/08,22:00,3.9,north,7.0
2021/04/08,22:10,3.9,north,7.1
2021/04/08,22:20,3.9,north-northwest,6.7
2021/04/08,22:30,4.0,north-northwest,6.7
2021/04/08,22:40,3.9,north-northwest,7.4
2021/04/08,22:50,3.9,north-northwest,6.9
2021/04/08,23:00,4.0,north-northwest,6.4
2021/04/08,23:10,4.1,north-northwest,6.7
2021/04/08,23:20,3.9,north-northwest,5.7
2021/04/08,23:30,3.9,northwest,6.2
2021/04/08,23:40,3.8,west-northwest,7.8
2021/04/08,23:50,4.0,west-northwest,7.0
